Location: Ashton River Estates
(39.1762°N, 77.0261°W)
Time: 20:15:13
(UTC+00:00)

Cosmos 2082 - Pass Details

Date: 29 October 2020
Orbit: 832 x 857 km, 71.0° (Epoch: 03 December)

Event Time Altitude Azimuth Distance (km) Brightness Sun altitude
Rises 23:18:14 0° 342° (NNW) 3,434 7.0 -13.8°
Reaches altitude 10° 23:20:48 10° 348° (NNW) 2,496 6.2 -14.3°
Maximum altitude 23:26:19 47° 62° (ENE) 1,121 3.9 -15.3°
Drops below altitude 10° 23:31:49 10° 136° (SE) 2,481 5.8 -16.4°
Enters shadow 23:31:55 10° 136° (SE) 2,519 5.8 -16.4°
